STARLINK-34069, 64920

Orbit data source: Space-Track

STARLINK-34069, 64920 is a payload satellite owned by SpaceX/Seattle (US) in LEO that was launched on Sat, 26 Jul 2025 UTC via an FALCON 9 launch vehicle from the Air Force Eastern Test Range (AFETR). Payload-class satellites include a variety of spacecraft equipped with specific instruments for various scientific and technological missions. These include communications satellites like Starlink; space stations such as the ISS; scientific satellites like the Hubble; Earth observation satellites from companies like Planet Labs, Umbra, and HawkEye 360; GPS; miniature CubeSats for education and research; and military/defense satellites.

Loading next visibility...
Identifier
64920, 2025-157S
Orbit
LEO
Country
Flag of USUS
Related business
Manufacturer
SpaceX/Seattle
Mission
Operational Commercial Communications
Bus & Motor
STARLINK V2MO, Unknown motor
Mass
575 kg wet, ~530 kg dry
Launch date (UTC)
2025-07-26 (4 months ago)
Launch vehicle
FALCON 9
Launch site
Air Force Eastern Test Range (AFETR)
Object type
Payload
Rocket body
Debris
Shape & HBR
Box + 2 Pan, 17.7 m
Radar Cross Section
36.964 m², Large (>1 m²)

Expand to show TLE details & history
Last TLE update: 12 hours ago

TLE from 12 hours ago
0 STARLINK-34069
1 64920U 25157S   25340.66670139  .00106778  00000-0  26495-2 0  9990
2 64920  53.1587  62.1375 0001154  82.0255 142.3694 15.39535778  5905
Epoch: 2025-12-06T16:00Z
TLE epoch observation values (Epoch: 2025-12-06T16:00:03.000Z)
Latitude
-34.26312°
Longitude
-43.06544°
Altitude
458.931 km
Speed
7.637 km/s
True Right ascension
18h 10m 33s
True Declination
-34° 05' 47"
Sunlit
Object was in daylight at epoch
Visualization orbit readout
Latitude
Unknown
Longitude
Unknown
Altitude
Unknown
Speed
Unknown
Apparent Right ascension
Unknown
Apparent Declination
Unknown
Sunlit
N/A
Visualization observer readout
Local Sidereal Time
02:31:05
Azimuth
Unknown
Elevation
Unknown
Doppler factor
Unknown
Orbital elements
Apogee altitude
448.526 km
Perigee altitude
446.951 km
Semi-major axis
6,825.876 km
Eccentricity
0.00012
Inclination
53.1587°
RAAN
62.1375°
Arg. of periapsis
82.0255°
True anomaly
142.37747°
Mean anomaly
142.3694°
Eccentric anomaly
142.37344°
Mean motion
3.84863 °/min
Orbital period
93.54 mins
BSTAR
0.0026495
Loading maneuver chart data...
Computing Atmospheric mass density...
Loading historical data...
Loading historical data...
Loading historical data...
Loading historical data...
Loading historical data...
Loading historical data...
Loading historical data...

Documentation

Showing up to 5 results
|